                ,  0.721,  0.869,  1.017,  1.165,  1.312,  1.460,  1.608,  1.756,  1.904,  2.052,  2.199,  2.347,  2.495,  2.643,  2.791,  2.938,  3.086,  3.234,  3.382,  3.530,  3.677,  3.825,  3.973,  4.121,  4.269,  4.417,  4.564,  4.712,  4.860,  5.008,  5.156,  5.303
1999/07/30 00:00,    7.5,    7.3,    6.7,    7.5,    9.3,   10.2,   10.4,  999.0,    9.5,  999.0,    8.0,  999.0,  999.0,  999.0,    9.4,    9.5,  999.0,   10.1,  999.0,  999.0,  999.0,  999.0,  999.0,   10.8,  999.0,  999.0,  999.0,  999.0,  999.0,  999.0,  999.0,   14.2
1999/07/30 00:10,    7.7,    5.9,    6.7,    7.5,    9.5,    9.5,    9.2,  999.0,    8.6,    8.3,    8.0,  999.0,  999.0,   10.0,   10.2,   10.4,   10.5,   10.9,  999.0,  999.0,  999.0,  999.0,  999.0,   11.2,  999.0,  999.0,  999.0,  999.0,  999.0,  999.0,  999.0,   13.6
1999/07/30 00:20,    8.0,    6.4,    7.8,    9.8,   10.9,   10.6,    9.9,    9.4,    8.7,    8.4,    7.8,    8.6,  999.0,   10.1,   10.3,   10.4,   11.4,   11.6,   11.6,  999.0,   11.7,   11.8,  999.0,   11.6,   11.8,  999.0,  999.0,  999.0,  999.0,  999.0,  999.0,   13.7
1999/07/30 00:30,    7.7,    6.6,    7.3,    9.1,   11.7,   10.9,    9.5,    8.3,    7.9,    7.4,    7.7,    8.1,    8.7,    8.8,    9.4,   10.1,   10.4,   10.7,   10.8,  999.0,   11.8,   11.5,   11.7,   11.8,   12.0,  999.0,  999.0,  999.0,  999.0,  999.0,  999.0,   12.9
1999/07/30 00:40,    7.4,    6.9,    7.5,    9.7,   12.0,   12.1,   10.8,    9.6,    8.6,    8.0,    7.6,    9.2,    9.2,    9.2,    9.9,   10.4,   10.5,   10.6,   10.4,  999.0,   11.4,  999.0,  999.0,   10.8,   10.7,   10.8,  999.0,   10.6,  999.0,  999.0,  999.0,   11.9
1999/07/30 00:50,    6.5,    6.6,    6.7,    9.4,   11.1,   12.1,   11.0,   10.1,    9.5,    8.4,    8.1,    8.6,  999.0,    9.7,   10.2,  999.0,   10.9,   11.4,   11.0,   11.3,   12.0,  999.0,  999.0,   11.3,  999.0,  999.0,  999.0,   11.2,  999.0,  999.0,  999.0,  999.0
1999/07/30 01:00,    5.6,    7.2,    7.1,    9.1,   11.4,   12.0,   11.7,   10.0,    9.2,    8.6,    8.7,    9.4,   10.4,   10.4,   10.7,  999.0,   10.9,   11.5,   11.2,   11.1,   12.8,  999.0,  999.0,   11.6,   11.2,  999.0,  999.0,   11.8,  999.0,  999.0,  999.0,  999.0
1999/07/30 01:10,    5.7,    7.9,    7.3,    8.7,   11.4,   11.9,   11.2,    9.5,    9.1,    8.8,    8.8,    9.1,   10.3,   10.4,   10.6,  999.0,   10.8,   10.9,   10.9,   11.0,   11.7,   11.2,   12.0,   11.5,   11.7,  999.0,  999.0,   12.2,  999.0,  999.0,  999.0,  999.0
1999/07/30 01:20,    6.1,    8.4,    7.9,   10.6,   11.1,   11.4,   11.2,   10.3,   10.1,    9.2,    9.5,    9.7,    9.9,   10.0,   10.1,   10.3,   10.8,   10.9,   10.8,   10.8,   10.6,   10.9,   10.4,   10.3,   10.7,  999.0,  999.0,   10.7,   11.0,  999.0,  999.0,   12.0
1999/07/30 01:30,    6.7,    8.8,    8.8,   10.9,   10.8,   10.7,   10.3,   10.2,    9.9,    9.7,   10.2,    9.3,   10.0,   10.2,   10.2,   10.5,   11.3,   11.6,   11.6,   11.7,   12.1,  999.0,   12.2,   11.9,   11.3,  999.0,   11.3,   11.2,   11.1,  999.0,  999.0,  999.0
1999/07/30 01:40,    6.1,    8.6,    8.4,    9.7,    9.9,  999.0,    9.4,    9.6,   10.0,   10.0,   10.1,   10.3,   10.7,   10.5,   11.4,   11.2,   11.4,   11.5,   11.3,   11.5,   11.1,  999.0,   11.4,    9.9,   10.2,  999.0,   10.9,   11.0,   11.7,   12.7,  999.0,  999.0
1999/07/30 01:50,    6.0,    9.6,    8.7,    9.5,    9.9,    9.3,    8.8,    9.3,    8.6,    9.4,    9.6,   10.4,   11.2,   11.2,   11.4,   11.7,   11.9,   11.9,   11.9,   11.8,  999.0,   11.8,   11.3,   11.1,   10.7,  999.0,   10.4,  999.0,   11.5,  999.0,  999.0,  999.0
1999/07/30 02:00,  999.0,    8.5,    9.3,   10.0,   10.9,    9.4,    8.4,    8.7,    8.9,    8.3,    8.0,    7.9,    8.9,    9.4,    9.7,   10.5,   10.8,   11.5,   10.8,   11.2,  999.0,  999.0,   11.0,   10.6,   11.0,  999.0,   11.6,   10.6,   11.6,  999.0,  999.0,  999.0
1999/07/30 02:10,    5.8,    8.5,   10.5,   10.2,   10.2,    9.2,    8.0,    7.8,    8.1,    8.4,    8.6,    8.7,    9.8,   10.3,   10.4,   12.0,   11.6,   12.6,   12.2,   12.2,   12.2,  999.0,  999.0,  999.0,   12.3,   12.7,  999.0,  999.0,   12.6,  999.0,  999.0,  999.0
1999/07/30 02:20,    6.9,    8.9,   10.4,    9.7,   11.2,   10.0,    9.5,    8.3,    8.0,  999.0,    8.2,    9.4,    8.8,    9.5,   10.5,   11.1,   11.0,   11.7,   12.3,   12.2,  999.0,  999.0,  999.0,   12.3,  999.0,  999.0,  999.0,  999.0,   13.7,  999.0,  999.0,  999.0
1999/07/30 02:30,    6.3,    8.3,    9.5,    9.0,   10.8,   10.9,   11.3,    9.4,    9.1,  999.0,  999.0,    8.6,    9.5,    9.9,   10.8,   10.8,   11.8,   12.1,   11.9,   12.0,   12.5,   12.9,  999.0,   12.3,   12.2,   12.2,  999.0,   13.3,   14.5,  999.0,  999.0,  999.0
1999/07/30 02:40,    6.3,    8.1,    9.5,    8.2,    9.8,   10.8,    9.6,    8.7,    9.1,    9.1,  999.0,   10.4,  999.0,  999.0,   11.4,   11.3,   11.8,   11.3,   10.6,   10.4,   10.8,  999.0,  999.0,  999.0,  999.0,   11.5,   12.7,   13.0,  999.0,  999.0,  999.0,  999.0
1999/07/30 02:50,    6.4,    8.3,    8.7,    7.7,    9.1,   10.7,   10.3,    9.5,    9.0,    9.2,   10.1,    9.7,   10.2,   10.8,   10.2,   10.4,   10.5,   10.2,   10.4,   10.6,   11.2,   10.8,  999.0,  999.0,  999.0,  999.0,   11.4,  999.0,  999.0,  999.0,  999.0,  999.0
1999/07/30 03:00,    6.8,    8.5,    8.4,    7.2,    8.7,   10.3,   10.6,    9.6,    8.9,    9.8,    9.9,   10.1,   11.4,   11.5,   11.4,   11.2,   11.0,   11.4,   10.7,   11.8,   10.9,   12.1,   10.9,  999.0,  999.0,  999.0,  999.0,   10.8,   11.8,  999.0,  999.0,  999.0
1999/07/30 03:10,    6.9,    8.8,    8.2,    7.1,    8.4,   10.2,   10.1,    9.1,    8.6,    8.2,    8.1,    9.2,    9.7,   10.1,   10.0,    9.5,   10.4,   11.0,   11.2,   11.0,  999.0,   12.1,   12.1,  999.0,  999.0,  999.0,  999.0,  999.0,   11.6,  999.0,  999.0,  999.0
1999/07/30 03:20,    7.2,    9.2,    8.9,    8.2,    9.5,   11.5,   11.7,    9.8,    9.5,    8.9,  999.0,    9.3,    9.6,    9.9,   10.4,   10.4,   10.9,   11.4,   11.6,   11.3,   12.1,   12.9,   12.1,  999.0,  999.0,  999.0,  999.0,   10.9,   11.5,  999.0,  999.0,  999.0
1999/07/30 03:30,    6.9,    8.8,    9.3,    7.8,    9.1,   11.6,   11.2,   10.0,    8.9,    8.8,    9.0,    9.1,   10.0,   10.1,  999.0,   10.1,   10.5,   10.7,   10.8,  999.0,  999.0,   12.5,   12.6,  999.0,  999.0,  999.0,  999.0,  999.0,   12.9,  999.0,  999.0,   11.6
1999/07/30 03:40,    6.9,    8.7,    8.1,    7.7,    9.6,   11.9,   11.1,   10.1,    8.3,    8.4,    8.8,    8.9,    9.4,   10.0,    9.4,    9.5,   10.1,   10.1,  999.0,  999.0,   10.4,  999.0,  999.0,   10.1,  999.0,  999.0,  999.0,   12.1,   13.0,  999.0,  999.0,  999.0
1999/07/30 03:50,    7.8,    8.3,  999.0,    8.0,   10.7,   12.4,   10.8,    9.7,    8.5,    8.2,    8.8,    9.4,    5.4,   10.3,    9.7,    9.7,   10.8,   11.1,  999.0,  999.0,  999.0,  999.0,   12.8,   11.9,  999.0,  999.0,  999.0,   12.0,   13.1,  999.0,  999.0,  999.0
1999/07/30 04:00,    7.6,    7.7,    6.1,    7.9,   10.1,   12.3,   11.1,    9.5,    8.7,    8.7,    9.3,  999.0,  999.0,  999.0,   10.2,   11.2,   11.2,   11.3,   10.4,   10.3,   11.3,  999.0,   13.0,   12.0,   12.2,  999.0,  999.0,   11.9,  999.0,  999.0,  999.0,   10.9
1999/07/30 04:10,    7.6,  999.0,    5.5,    8.2,   10.2,   12.8,   11.4,   10.0,    9.6,    9.6,    9.9,  999.0,  999.0,    9.9,    9.5,   10.2,   10.2,   10.2,    9.6,    9.9,   10.5,   11.4,  999.0,   11.9,   11.6,  999.0,  999.0,  999.0,  999.0,  999.0,  999.0,   11.4
1999/07/30 04:20,    7.2,  999.0,    7.2,    9.4,   12.1,   12.3,   12.0,   10.7,    9.7,    9.4,    9.3,  999.0,    0.0,    9.5,    9.5,    9.6,    9.3,    9.8,    9.8,   10.8,   11.4,  999.0,   12.6,   12.9,   12.4,  999.0,  999.0,  999.0,  999.0,   12.8,  999.0,   11.1
1999/07/30 04:30,    7.2,    5.4,    7.5,    9.8,   12.1,   12.2,   11.5,   10.8,    9.9,   10.0,    9.8,  999.0,  999.0,   10.0,    9.0,    9.1,    9.9,    9.8,   10.3,   10.6,   11.6,  999.0,   12.8,   12.9,  999.0,  999.0,   10.8,   11.5,   12.7,   12.9,  999.0,   11.4
1999/07/30 04:40,    7.1,    6.9,    8.9,   10.8,   11.8,   11.4,   11.3,   10.7,    9.9,    9.9,   10.2,  999.0,  999.0,   10.0,  999.0,    9.5,    9.6,   10.3,   10.7,   10.9,  999.0,  999.0,  999.0,   12.3,  999.0,  999.0,   10.9,   11.1,  999.0,   12.2,  999.0,    9.9
1999/07/30 04:50,    7.1,    7.4,    9.4,   11.8,   12.3,   11.1,   10.7,   10.4,   10.5,    9.8,   10.4,  999.0,  999.0,   10.5,   10.1,   10.2,   10.7,   10.6,   10.6,   10.6,  999.0,   11.0,  999.0,   12.2,   12.4,   11.9,   11.0,   11.9,  999.0,   13.4,  999.0,   11.0
1999/07/30 05:00,    6.7,    8.4,   10.9,   12.3,   12.1,   11.6,   11.0,   10.9,   11.3,   10.8,   10.8,  999.0,  999.0,    9.0,    9.5,  999.0,   10.6,   10.8,  999.0,   12.0,   11.9,   12.2,   12.5,   12.7,  999.0,  999.0,  999.0,   11.5,  999.0,   12.5,  999.0,    8.7
1999/07/30 05:10,    7.0,    8.6,   10.3,   11.4,   12.2,   12.2,   11.4,   10.5,   10.8,   10.4,   10.0,   10.3,    9.8,    9.4,   10.2,   10.3,    9.9,   10.5,   11.0,   10.9,   11.6,   11.7,  999.0,   12.1,   12.3,   11.9,   11.8,   11.6,  999.0,   13.1,   11.5,   10.3
1999/07/30 05:20,    7.5,    9.3,   11.1,   12.6,   12.6,   12.6,   11.5,   10.9,    9.8,   10.1,    9.5,    9.2,    9.8,    9.4,    9.1,    8.4,  999.0,  999.0,  999.0,    8.8,    9.8,   10.6,  999.0,   11.4,   10.9,   11.2,  999.0,   11.6,  999.0,  999.0,  999.0,    8.8
1999/07/30 05:30,    7.2,    9.0,   10.9,   13.0,   12.9,   12.1,   11.9,   11.6,   10.8,    9.5,    9.0,  999.0,  999.0,  999.0,  999.0,  999.0,    7.7,  999.0,    7.9,    9.0,    9.2,  999.0,   11.1,   11.3,   11.0,   11.3,   10.7,   11.7,   13.0,  999.0,  999.0,    7.8
1999/07/30 05:40,    7.8,    9.7,   12.3,   13.6,   13.3,   12.5,   13.5,   12.8,   12.1,   11.3,   10.8,   10.6,  999.0,    8.9,    9.1,    9.8,  999.0,  999.0,  999.0,   10.0,   10.0,   10.3,   11.0,   11.1,   11.8,  999.0,   10.2,   10.5,   12.2,  999.0,  999.0,  999.0
1999/07/30 05:50,    7.8,    9.1,   11.1,   13.1,   12.3,   11.8,   12.2,   12.5,   11.7,   11.5,   11.4,  999.0,  999.0,    9.5,    9.0,    9.7,  999.0,  999.0,  999.0,    9.1,    9.8,   10.6,   11.9,   12.2,   13.2,  999.0,   11.0,   11.6,  999.0,  999.0,   12.0,    8.3
1999/07/30 06:00,    7.3,    9.8,   11.1,   12.3,   12.2,   11.3,   11.3,   11.5,   11.3,   11.0,   11.6,  999.0,   10.9,   10.2,   10.2,    9.6,  999.0,  999.0,  999.0,    9.7,   10.1,  999.0,  999.0,   12.2,   12.4,  999.0,   10.6,   11.5,  999.0,  999.0,  999.0,    8.1
1999/07/30 06:10,    6.7,    8.6,   10.2,   11.2,   11.2,   10.7,   10.7,   11.4,   11.5,   11.4,   10.7,   10.0,   10.2,    9.9,    9.1,  999.0,  999.0,    9.2,    9.3,    9.3,   10.1,  999.0,   12.3,   12.4,   12.7,  999.0,  999.0,   11.7,  999.0,  999.0,  999.0,    7.9
1999/07/30 06:20,    7.3,    8.9,   10.4,   11.5,   11.5,   11.2,   11.3,   12.1,   11.7,   11.2,   10.6,   10.5,   10.5,   10.0,    9.1,    9.2,    9.0,    9.2,    9.0,    9.4,   10.0,  999.0,  999.0,   11.9,   12.2,  999.0,  999.0,  999.0,  999.0,  999.0,   10.6,    7.5
1999/07/30 06:30,    7.7,    9.3,   10.5,   11.4,   11.9,   12.2,   12.1,   11.1,   11.0,   10.8,    9.9,   10.2,  999.0,    9.6,    9.0,    9.6,    9.3,    9.1,    8.8,    9.0,    9.3,  999.0,   11.5,   11.9,  999.0,  999.0,  999.0,  999.0,  999.0,  999.0,  999.0,    7.9
1999/07/30 06:40,    7.6,    9.3,   10.6,   11.3,   11.7,   10.7,   10.1,    9.8,   10.4,   10.5,    9.7,    9.0,    9.0,    8.8,    7.7,    7.8,    8.2,    8.0,    8.2,    8.6,    9.4,   10.7,  999.0,  999.0,   12.2,   12.2,  999.0,  999.0,  999.0,  999.0,   11.1,    6.4
1999/07/30 06:50,    7.6,    9.2,   10.5,   10.3,   10.1,    9.9,  999.0,   10.2,   10.4,   10.4,   10.3,   10.3,    9.1,    8.9,    8.7,    8.2,    8.3,    8.5,    8.4,    9.6,   11.3,   11.9,   12.4,  999.0,  999.0,  999.0,  999.0,  999.0,  999.0,  999.0,  999.0,  999.0
1999/07/30 07:00,    8.0,    9.5,    9.6,    9.4,    9.4,    9.9,    9.5,    9.8,   10.0,   10.6,   10.2,    9.4,    9.5,    8.7,    8.7,    8.5,    7.9,    7.8,    7.8,    8.9,   10.1,   10.7,   10.6,   10.8,   10.7,  999.0,  999.0,  999.0,  999.0,   12.6,   11.7,   10.7
1999/07/30 07:10,    7.6,    8.6,    9.0,    8.6,    8.5,    8.8,    8.8,  999.0,    9.0,    9.8,   10.0,    9.7,    8.5,    8.8,    8.9,    9.4,    9.1,    8.8,    9.1,    9.6,   10.5,   10.7,   10.8,   11.7,  999.0,  999.0,  999.0,  999.0,  999.0,  999.0,   11.7,   11.1
1999/07/30 07:20,    7.6,    8.3,    8.2,    8.5,    8.7,    9.4,    8.9,    8.1,    8.4,    9.2,    9.8,    9.4,    9.0,    9.0,    9.3,    9.4,   10.3,   10.1,    9.4,    9.4,   10.1,    9.7,   10.2,   11.0,  999.0,  999.0,  999.0,  999.0,  999.0,   13.6,   11.7,   10.4
1999/07/30 07:30,    6.6,  999.0,    8.4,    9.5,   10.9,   10.3,   10.6,    9.8,    9.0,    8.6,    9.1,    9.8,    9.3,    9.0,    8.8,    9.5,   10.2,   10.2,   10.6,   10.3,   10.0,   10.0,   10.7,   11.4,   12.6,  999.0,  999.0,  999.0,   13.8,   13.9,   12.1,  999.0
1999/07/30 07:40,    6.3,    6.0,    8.7,    9.9,   11.6,   10.7,   11.0,   11.1,    9.7,    9.4,   10.7,   10.4,    9.5,    8.7,    8.5,  999.0,    9.2,    9.8,    9.8,    9.9,   10.2,    9.9,    9.8,   10.6,   12.0,  999.0,  999.0,  999.0,  999.0,   13.7,   11.0,    8.6
1999/07/30 07:50,    6.1,    6.8,    9.2,   10.4,   10.0,   10.8,   11.5,   11.7,   10.7,    9.5,    9.1,    9.2,    9.1,    8.5,    8.2,    8.2,    8.8,    8.7,    9.0,    8.9,   10.7,   10.8,   10.4,   10.6,   12.1,  999.0,  999.0,  999.0,   13.4,   13.9,   10.5,    8.0
1999/07/30 08:00,    6.6,    7.7,    9.5,   10.0,   10.7,   11.3,   11.6,   10.9,  999.0,    8.9,  999.0,    8.4,  999.0,    8.8,    8.6,    7.5,    7.1,    7.4,    7.7,    8.6,    9.2,   10.2,   10.3,   11.2,   11.6,   12.0,  999.0,  999.0,   13.8,   14.5,   11.1,  999.0
1999/07/30 08:10,    6.7,    7.9,    9.6,   10.7,   11.6,   12.1,   12.1,   11.8,   10.7,    9.8,    9.5,    9.6,    9.1,    9.0,    7.9,    7.2,    7.5,    7.1,    7.8,    8.7,    9.7,   11.0,   11.5,   11.9,   12.2,   13.4,  999.0,  999.0,  999.0,   13.4,   10.6,  999.0
1999/07/30 08:20,    6.6,    8.4,    9.4,   11.3,   11.6,   11.6,   11.2,   11.3,   10.7,    9.6,    8.6,  999.0,    8.4,    8.9,    8.7,    8.7,  999.0,    8.4,    8.4,    9.7,   10.5,   11.2,   11.7,   12.2,   12.4,  999.0,  999.0,  999.0,  999.0,   13.9,   10.2,    9.2
1999/07/30 08:30,    6.5,    8.7,    9.8,   11.0,   10.9,   10.7,   10.9,   11.1,   10.8,    9.7,    9.7,   10.3,   10.0,    9.6,  999.0,  999.0,  999.0,  999.0,  999.0,  999.0,   10.4,   11.2,   11.3,   11.6,   12.8,   13.0,   12.7,   13.2,  999.0,   12.5,    9.4,    8.2
1999/07/30 08:40,    6.9,    8.3,    9.1,   10.0,   10.2,    9.7,    9.7,    9.9,    9.4,    8.5,  999.0,    9.2,   10.3,    9.4,    8.6,  999.0,  999.0,  999.0,  999.0,  999.0,   10.1,   11.1,   11.7,   12.3,   12.3,  999.0,   12.8,   13.7,  999.0,  999.0,    8.6,    6.6
1999/07/30 08:50,    6.1,    8.3,    9.0,    9.8,   10.5,    9.7,    8.9,    9.0,    9.0,    9.1,    9.6,   10.0,   10.5,    9.6,  999.0,  999.0,    8.5,  999.0,    8.8,    9.5,   10.7,   11.7,  999.0,   12.3,   13.1,  999.0,   13.4,   14.1,   13.6,   11.5,    9.4,  999.0
1999/07/30 09:00,    6.7,    7.5,    7.8,    9.6,    9.6,    9.5,    9.9,    9.6,    9.6,    9.8,   10.0,   10.6,   10.5,   10.1,   10.0,    9.8,    9.3,    9.8,    9.6,   10.4,   11.0,   12.2,   13.2,  999.0,  999.0,  999.0,  999.0,  999.0,  999.0,  999.0,    9.6,    7.8
1999/07/30 09:10,    5.8,    7.3,    7.3,    8.7,    9.0,    9.5,  999.0,   10.2,    9.9,   10.0,   10.2,   11.4,   10.7,   10.9,   11.0,   10.1,    9.7,    9.9,   10.3,   11.3,   12.2,   13.5,  999.0,  999.0,  999.0,  999.0,  999.0,  999.0,   -0.9,  999.0,  999.0,    8.2
1999/07/30 09:20,    5.2,    5.9,    7.8,    8.9,    9.8,    9.6,   10.1,    9.8,    9.6,    8.7,    9.6,   10.4,    9.9,   10.1,   10.3,  999.0,  999.0,   10.7,   11.2,   11.4,   12.4,   12.9,   13.7,  999.0,  999.0,  999.0,  999.0,  999.0,    0.1,  999.0,  999.0,  999.0
1999/07/30 09:30,    5.1,    4.6,    8.1,    9.4,   10.0,    9.5,    9.3,    9.0,    9.5,    8.5,  999.0,    9.2,    8.9,    9.4,   10.4,  999.0,  999.0,   10.1,   11.0,   11.5,   12.2,   12.8,  999.0,  999.0,  999.0,  999.0,  999.0,  999.0,  999.0,  999.0,  999.0,  999.0
1999/07/30 09:40,    5.1,  999.0,    8.0,    9.5,   11.1,   10.6,   10.0,    9.1,    9.4,    9.2,    9.9,    9.6,    9.4,   10.7,   10.8,   11.3,  999.0,    9.8,  999.0,   10.9,   11.8,   12.9,  999.0,  999.0,  999.0,  999.0,  999.0,  999.0,   -0.4,  999.0,  999.0,  999.0
1999/07/30 09:50,    5.1,    7.8,    8.6,    9.3,   10.8,   12.1,    9.9,    8.4,    8.9,    9.4,    9.7,    9.8,  999.0,   10.4,    9.6,    9.8,    9.8,  999.0,  999.0,  999.0,   11.5,  999.0,  999.0,   13.2,   14.0,  999.0,  999.0,  999.0,  999.0,  999.0,  999.0,  999.0
1999/07/30 10:00,    5.7,    7.7,    8.1,    9.4,   10.1,    9.9,    9.7,    9.6,    8.7,    9.1,   10.1,   10.4,    9.9,    9.9,   10.9,    9.8,   10.4,    9.9,   10.2,   11.5,   12.8,   13.2,   13.4,  999.0,   14.0,   14.9,  999.0,  999.0,  999.0,  999.0,    9.4,    6.8
1999/07/30 10:10,    4.3,    5.5,    7.0,    8.5,    9.4,    9.8,    9.8,    9.3,    8.2,    7.9,    8.4,    8.7,    9.2,    8.7,  999.0,  999.0,  999.0,  999.0,   11.2,   10.1,   10.6,   11.5,   12.4,   11.7,  999.0,   13.0,  999.0,  999.0,  999.0,  999.0,    9.8,    7.7
1999/07/30 10:20,    5.9,    6.9,    7.8,    9.0,   10.4,   10.8,   10.5,    9.6,    9.3,    9.1,    9.1,    9.7,    9.7,   10.1,  999.0,  999.0,   10.6,    9.0,   10.7,   11.5,   12.3,   12.6,  999.0,   13.2,   13.8,   13.0,  999.0,  999.0,  999.0,   13.5,   10.8,    7.5
1999/07/30 10:30,    3.8,    4.8,    8.0,    9.7,   11.3,   10.9,   10.4,    9.9,    8.7,    8.4,    8.9,    9.3,   10.0,  999.0,  999.0,  999.0,    8.3,    8.3,    8.2,    7.9,    9.4,   10.3,  999.0,  999.0,   11.6,  999.0,  999.0,  999.0,   -0.6,  999.0,   10.5,  999.0
1999/07/30 10:40,    2.0,    5.2,    6.5,    8.0,    9.7,   10.0,    9.2,    9.8,    8.9,    8.5,    8.9,    9.7,   11.1,    9.3,  999.0,    9.2,    9.1,    9.1,    7.8,    8.1,    9.1,    9.0,  999.0,  999.0,   12.0,  999.0,  999.0,  999.0,  999.0,    7.0,    8.4,    8.0
1999/07/30 10:50,    3.3,    4.3,    5.8,    6.6,    8.8,   10.1,    9.8,    9.6,    8.8,    8.3,    8.5,    9.3,    9.6,    9.3,    8.8,  999.0,   10.3,  999.0,   10.2,    9.5,   10.6,   11.1,   11.1,  999.0,   11.7,  999.0,  999.0,  999.0,  999.0,    9.7,    8.5,    7.1
1999/07/30 11:00,    3.3,    4.8,    5.2,    7.2,    8.8,   10.0,    9.2,    9.8,    9.8,    8.3,    7.9,    8.8,    8.9,    8.9,    8.4,   10.6,   10.9,  999.0,  999.0,   10.3,   11.6,   12.5,   13.3,  999.0,   13.6,  999.0,  999.0,  999.0,  999.0,  999.0,    8.0,  999.0
1999/07/30 11:10,    4.6,    5.1,    6.9,    8.4,    7.4,    7.8,    8.4,    8.8,    9.0,    8.8,    8.9,    9.4,    9.0,    9.9,   11.1,   11.1,   11.0,  999.0,   11.0,   11.1,   11.4,   12.7,   13.5,  999.0,   14.4,  999.0,  999.0,  999.0,  999.0,   13.6,  999.0,  999.0
1999/07/30 11:20,    5.4,    5.7,    6.5,    6.7,    7.7,  999.0,    7.9,    8.5,    7.9,    7.7,    7.0,    7.4,    8.2,    8.3,    8.1,    8.7,    7.8,    9.7,    8.2,    9.1,   11.9,   12.5,   14.4,  999.0,   15.4,  999.0,  999.0,  999.0,  999.0,  999.0,    8.9,    8.0
1999/07/30 11:30,    4.4,    5.9,    7.2,    7.0,    8.3,    9.1,    7.1,    8.5,    6.6,    7.6,    7.5,    7.7,    9.3,    9.2,    9.1,    8.4,    9.1,  999.0,   10.4,  999.0,   10.4,   11.1,  999.0,  999.0,  999.0,  999.0,  999.0,  999.0,  999.0,  999.0,    8.0,  999.0
1999/07/30 11:40,    3.9,    5.2,    5.1,    6.0,    6.7,    6.3,    6.8,    6.4,    7.5,    8.3,    8.8,    9.2,   10.0,    9.6,    9.7,    9.3,  999.0,  999.0,   11.3,  999.0,  999.0,   11.0,    7.3,  999.0,  999.0,   13.7,  999.0,  999.0,    0.1,  999.0,  999.0,  999.0
1999/07/30 11:50,    3.3,    4.5,    6.2,    5.6,    5.3,    6.2,    7.5,    9.3,   11.1,   11.7,   10.5,   10.2,   10.4,   10.5,    9.0,    8.4,    7.5,    8.5,    9.8,  999.0,   10.5,   11.4,   10.9,  999.0,  999.0,    7.7,  999.0,  999.0,  999.0,  999.0,  999.0,   11.0
1999/07/30 12:00,    2.9,    5.1,    3.2,    3.5,    5.1,    4.8,    6.4,    6.7,    6.0,    6.8,    7.3,    9.1,    8.5,    8.5,    7.3,    6.4,    5.4,  999.0,    3.7,    1.4,    2.1,    5.7,    9.5,    8.8,  999.0,   10.6,    9.8,   12.7,  999.0,  999.0,  999.0,  999.0
1999/07/30 12:10,    3.6,    3.5,    3.2,    3.4,    2.6,    5.0,    5.4,    5.0,    4.1,    7.9,    9.1,   13.2,  999.0,    8.3,   10.9,    7.7,  999.0,  999.0,    5.0,    8.8,    9.3,    8.6,   10.3,    7.8,  999.0,   11.4,  999.0,  999.0,  999.0,  999.0,  999.0,  999.0
1999/07/30 12:20,    4.9,    4.6,    4.3,    3.7,    2.6,    5.3,   18.0,    9.8,    6.0,    6.7,   -0.4,    2.6,    4.3,  999.0,  999.0,  999.0,    0.2,    4.8,  999.0,  999.0,    5.7,  999.0,   11.3,  999.0,    8.2,   12.7,   10.5,   12.3,   12.6,  999.0,  999.0,  999.0
1999/07/30 12:30,  999.0,    5.2,    5.7,    5.6,    6.7,    7.8,    6.4,    8.1,  999.0,  999.0,  999.0,  999.0,  999.0,  999.0,  999.0,  999.0,  999.0,  999.0,  999.0,    8.2,    7.5,    8.7,   10.0,    7.4,    9.5,  999.0,   10.4,   11.9,  999.0,  999.0,  999.0,  999.0
1999/07/30 12:40,    3.2,    3.5,    4.5,    5.8,    4.3,    4.1,    3.6,    6.5,    8.3,    7.6,    8.2,    9.6,    9.9,    9.6,    9.3,    9.0,    8.6,    7.8,    8.7,  999.0,    9.2,   10.1,   10.4,   11.4,   12.9,  999.0,   12.7,   13.6,   -0.3,  999.0,  999.0,  999.0
1999/07/30 12:50,    1.7,    1.8,    2.6,    3.3,    4.7,    4.2,    5.1,    6.4,    7.8,    9.5,    9.4,    8.7,    9.3,    9.4,    9.6,    9.2,    9.3,    9.0,    8.7,    9.9,  999.0,   10.3,   10.3,  999.0,  999.0,   12.4,   12.4,  999.0,  999.0,  999.0,  999.0,  999.0
1999/07/30 13:00,    0.7,    1.9,    2.8,    3.1,    3.9,    4.2,    5.5,    4.9,    9.9,   10.1,    9.0,    8.3,    9.6,   10.7,   11.1,   10.4,   10.2,   10.6,   11.5,   12.3,   12.7,   12.9,   12.9,    6.7,  999.0,   14.6,   14.1,    7.5,  999.0,  999.0,  999.0,    4.1
1999/07/30 13:10,    3.7,  999.0,    3.0,    2.8,    6.5,    5.1,    7.1,    4.9,    3.4,    9.5,    7.0,    8.7,    4.9,  999.0,  999.0,    8.3,    8.6,    7.6,    8.8,  999.0,   13.3,   -2.5,    7.5,    7.4,   11.6,   12.2,    5.2,    4.3,   -0.2,    1.7,    1.7,    5.2
1999/07/30 13:20,    2.9,    3.2,    4.6,    2.7,    2.5,    2.0,    4.9,    7.0,    7.3,    9.0,    6.4,  999.0,  999.0,   10.5,  999.0,    7.1,   13.7,    6.8,   11.7,   -4.4,   17.2,   14.4,    1.3,    9.6,    6.2,    3.8,    4.0,    3.8,    5.1,    0.6,   -1.4,    0.0
1999/07/30 13:30,    4.1,    3.2,    3.6,    2.8,    1.9,    3.6,    6.8,    6.5,    5.7,    3.6,    1.6,    2.8,    1.2,  999.0,    8.6,    9.3,   13.2,   11.2,    7.0,    6.1,    9.5,    1.4,  999.0,   -0.7,  999.0,   -5.1,   -4.3,   13.7,   -8.1,   -4.9,   -2.0,  999.0
1999/07/30 13:40,    3.0,    3.5,    4.1,    5.4,    6.5,    7.4,    8.4,    8.3,    8.0,    7.1,    7.7,    9.2,    8.7,    8.7,    9.2,    8.5,    8.8,   -1.9,   -4.6,  999.0,    2.3,   -5.7,  999.0,    3.0,  999.0,  999.0,    5.3,  999.0,  999.0,  999.0,  999.0,  999.0
1999/07/30 13:50,    3.2,    3.2,    3.2,    4.3,    5.5,    6.7,    7.4,    7.5,    7.5,    6.2,    6.2,    7.3,    7.6,    6.8,    8.4,    9.5,    4.4,    2.5,   -0.5,   -3.6,    2.6,    7.3,  999.0,    6.2,  999.0,  999.0,    5.3,   -3.5,  999.0,  999.0,  999.0,  999.0
1999/07/30 14:00,    2.1,    3.7,    2.9,    3.4,    4.0,    5.2,    6.8,    7.3,    8.2,    8.2,    5.9,    7.1,    6.6,    9.2,    8.1,    9.8,    9.9,    9.8,    6.6,    3.3,  999.0,   10.5,   10.4,   10.4,  999.0,    8.5,    8.7,    7.5,    0.7,  999.0,  999.0,    0.8
1999/07/30 14:10,    2.9,    3.7,    4.1,    3.6,    5.3,    4.1,    7.1,    8.6,    9.0,    9.2,   10.7,  999.0,   10.3,   13.1,   10.1,    9.5,    9.2,   12.0,    8.1,    6.8,    2.8,    8.8,   18.2,    7.4,  999.0,  999.0,   14.5,  999.0,  999.0,  999.0,    2.2,  999.0
1999/07/30 14:20,    2.4,    3.6,    3.9,    4.7,    5.5,    6.1,    7.5,    8.7,    9.2,   10.4,   10.6,   10.3,    9.1,    9.7,    9.4,    9.2,    8.2,   -7.0,   -6.2,   -8.9,  999.0,  999.0,  999.0,   -7.7,   -3.7,  999.0,  999.0,  999.0,  999.0,  999.0,  999.0,  999.0
1999/07/30 14:30,   -1.1,    0.3,    1.6,    5.2,    8.1,    5.6,    8.4,    8.1,    8.5,    8.5,    9.0,    9.6,    8.7,    8.2,    6.8,    8.1,    8.4,    3.5,    3.9,    4.9,   10.6,    5.3,   10.9,   -0.4,  999.0,  999.0,    1.2,    6.4,  999.0,  999.0,  999.0,  999.0
1999/07/30 14:40,    0.3,    0.0,    1.9,    0.6,    5.9,    7.8,    7.6,    9.3,    9.1,  999.0,   10.0,    8.7,    8.9,    6.6,    5.4,    6.1,    6.4,  999.0,  999.0,    6.9,    9.6,    9.3,  999.0,  999.0,  999.0,  999.0,  999.0,    0.3,  999.0,  999.0,    5.3,  999.0
1999/07/30 14:50,    1.1,    0.3,    2.5,    4.9,    5.8,    6.8,    7.7,    8.5,    8.5,    8.6,    9.2,    9.6,    9.5,    8.9,    8.0,    8.7,    7.1,    8.8,    7.8,  999.0,    4.6,    9.1,  999.0,    9.9,  999.0,   -0.3,    6.2,   -0.5,    3.8,  999.0,    2.2,  999.0
1999/07/30 15:00,    1.5,    3.5,    4.2,    5.4,    7.3,    8.4,    8.2,    8.7,    9.1,    8.8,    9.2,    8.1,    7.7,    7.4,    6.0,    4.8,    2.5,  999.0,    5.2,    0.9,  999.0,  999.0,    9.5,    9.2,    3.2,    0.7,  999.0,    0.2,  999.0,  999.0,  999.0,  999.0
1999/07/30 15:10,    1.5,    1.1,    2.2,    4.2,    6.4,    7.5,    8.9,    9.1,    9.4,    9.0,    8.8,    7.3,    7.0,    8.0,    6.9,    8.2,    8.9,    8.6,    6.0,  999.0,  999.0,  999.0,  999.0,  999.0,  999.0,    8.8,    8.2,    8.5,    8.6,    9.0,  999.0,    5.5
1999/07/30 15:20,    3.9,   -4.1,    4.2,    4.9,    5.5,    8.1,    6.3,    7.5,    5.6,    7.9,    7.7,    5.3,    7.2,    7.1,    6.5,    7.9,    5.3,    5.6,    4.3,    4.9,    3.2,   -0.4,    1.8,    1.3,    0.9,   -1.3,   -2.4,   -1.2,   -1.6,    1.5,    2.5,    4.8
1999/07/30 15:30,   -4.8,   -1.6,    1.1,    2.5,    8.0,    7.2,    6.1,    3.2,    1.3,    4.5,    3.7,    2.6,    6.4,    6.7,    9.3,    8.0,   11.7,   -1.2,   -3.1,   -6.2,    6.8,    7.9,    5.5,    5.1,    5.4,    5.5,    1.5,    7.2,    6.1,    9.9,    1.9,   -2.9
1999/07/30 15:40,  -10.4,  999.0,  -21.2,  -13.0,   -8.5,  999.0,  999.0,  999.0,  -11.3,   -8.9,  999.0,  999.0,  999.0,  999.0,  999.0,  999.0,  -13.7,  -11.8,  -17.1,   -0.9,    4.9,  999.0,    6.3,    8.8,    8.2,    7.8,    6.9,    8.2,    8.2,   11.3,   10.8,    9.8
1999/07/30 15:50,    1.3,    2.7,    6.2,    4.3,    8.7,    8.7,    3.9,    7.3,    1.9,    6.6,    6.2,    3.7,  -11.5,  -12.3,    7.7,   -6.4,    4.5,   17.1,   15.5,    8.4,   14.1,   17.6,   19.0,   17.2,    9.3,   -8.1,   17.0,   13.1,   15.0,   14.6,   13.4,   11.8
1999/07/30 16:00,   -1.9,   -1.8,   -0.9,   -0.9,    6.9,    6.6,    6.8,    4.9,    9.5,    8.6,    3.9,   11.3,   11.4,   13.3,    9.2,   11.6,    9.6,   12.4,   14.6,   16.0,  999.0,  999.0,  999.0,  999.0,  999.0,  999.0,  999.0,  999.0,  999.0,  999.0,    4.2,   10.5
1999/07/30 16:10,    3.3,    3.5,    1.9,    3.0,    1.9,    3.8,  999.0,    6.3,    7.6,    5.5,  999.0,    3.9,    5.0,  999.0,    6.1,  999.0,  999.0,  999.0,  999.0,  999.0,  999.0,   11.0,  999.0,  999.0,  999.0,  999.0,  999.0,  999.0,  999.0,  999.0,  999.0,  999.0
1999/07/30 16:20,    3.0,    2.6,    2.5,    3.1,    4.4,    5.1,    4.9,    5.3,    6.3,    7.0,    7.7,    7.3,    8.4,    9.8,    9.9,   10.7,  999.0,   11.6,  999.0,  999.0,  999.0,  999.0,   10.0,   11.5,  999.0,  999.0,  999.0,  999.0,  999.0,  999.0,  999.0,  999.0
1999/07/30 16:30,    2.5,    2.5,    2.6,    3.5,    3.8,    5.6,    5.7,    6.1,    7.3,    8.5,    9.0,    9.2,    9.1,    9.7,   10.6,   10.6,   11.3,   11.0,   10.0,   10.0,    9.9,  999.0,  999.0,  999.0,  999.0,  999.0,  999.0,  999.0,  999.0,  999.0,  999.0,   11.9
1999/07/30 16:40,    3.0,    2.4,    0.3,    2.3,    3.8,    5.5,    6.9,    6.6,    7.1,    7.3,    7.9,    8.1,    8.7,    9.9,  999.0,  999.0,   11.2,  999.0,    9.8,    9.9,   10.7,  999.0,  999.0,  999.0,  999.0,  999.0,  999.0,  999.0,  999.0,  999.0,  999.0,  999.0
1999/07/30 16:50,    2.4,    1.1,    0.9,    2.0,    5.3,    7.2,    7.3,    7.2,    8.1,    8.1,    9.6,   10.5,    7.0,    7.7,   10.2,  999.0,  999.0,  999.0,  999.0,  999.0,  999.0,  999.0,  999.0,  999.0,  999.0,  999.0,  999.0,  999.0,  999.0,  999.0,  999.0,   -0.3
1999/07/30 17:00,    2.4,  999.0,    2.0,    4.8,    7.5,    6.4,    6.3,    6.9,  999.0,    7.9,    7.4,    7.3,    5.4,    6.7,  999.0,  999.0,    9.7,   11.0,   10.7,  999.0,  999.0,  999.0,   12.0,  999.0,  999.0,  999.0,  999.0,  999.0,  999.0,  999.0,  999.0,  999.0
1999/07/30 17:10,    3.7,    2.6,    1.6,    1.5,    2.5,    2.8,    5.4,    5.8,    7.1,    8.2,    9.4,   10.3,    9.4,    9.3,    9.7,   10.5,   12.0,   12.6,   12.4,  999.0,  999.0,  999.0,   11.6,  999.0,  999.0,  999.0,  999.0,  999.0,  999.0,  999.0,  999.0,  999.0
1999/07/30 17:20,    3.4,    1.6,    1.9,    2.6,    3.2,    5.1,    6.2,    5.1,   -0.6,    9.1,    7.2,   -0.9,    5.5,    8.3,    9.5,    9.8,   13.4,   11.2,  999.0,    7.5,  999.0,  999.0,  999.0,  999.0,  999.0,  999.0,  999.0,  999.0,  999.0,  999.0,  999.0,  999.0
1999/07/30 17:30,    2.7,    1.0,    0.8,    2.6,    2.2,    1.6,   -1.2,   -0.6,   -2.7,   -1.8,   -0.9,   -4.3,    4.7,    0.4,    7.0,    1.6,   -1.0,   -0.1,    0.4,  999.0,   12.9,  999.0,  999.0,   10.4,  999.0,  999.0,  999.0,  999.0,  999.0,  999.0,  999.0,  999.0
1999/07/30 17:40,  999.0,  999.0,    2.8,    2.0,    3.3,    7.9,    3.7,    1.1,    2.6,    0.7,   -5.8,    0.4,    3.2,    5.2,   -0.5,    1.4,    4.7,   10.4,    7.3,   10.5,    8.4,    7.2,    4.7,   -1.4,    2.9,  999.0,  999.0,  999.0,  999.0,  999.0,  999.0,  999.0
1999/07/30 17:50,    2.5,    2.0,    4.0,    5.1,    4.9,    4.8,    6.6,    8.1,    5.1,    6.7,    7.1,    7.1,    7.0,    7.3,    8.2,    7.5,    9.1,  999.0,  999.0,    9.1,  999.0,  999.0,  999.0,  999.0,   12.8,   14.2,  999.0,  999.0,  999.0,  999.0,  999.0,  999.0
1999/07/30 18:00,  999.0,    2.2,    3.8,    5.9,    6.4,    6.4,    6.1,    6.8,    7.2,    7.3,    7.5,    8.0,    9.2,    9.4,    9.9,    8.4,   10.0,  999.0,    8.6,    8.7,    7.7,  999.0,    9.4,  999.0,   12.8,  999.0,  999.0,  999.0,  999.0,  999.0,  999.0,  999.0
1999/07/30 18:10,    1.4,    2.7,    3.8,    4.9,  999.0,    6.6,    6.5,    6.3,    7.2,    7.0,    7.2,    7.1,    7.8,    7.3,    7.7,  999.0,    8.7,  999.0,  999.0,    7.6,  999.0,  999.0,  999.0,    9.9,   10.3,   11.2,  999.0,  999.0,  999.0,  999.0,  999.0,  999.0
1999/07/30 18:20,    1.0,    3.5,    4.7,    5.4,    6.2,    6.9,    7.7,    8.3,    7.5,    7.5,    7.3,    7.7,    7.0,    7.2,    8.6,  999.0,  999.0,  999.0,   10.5,  999.0,  999.0,  999.0,  999.0,  999.0,   11.2,  999.0,  999.0,  999.0,  999.0,  999.0,  999.0,  999.0
1999/07/30 18:30,    2.3,    3.1,    2.2,    4.9,    6.6,    8.1,    7.7,    8.5,    8.1,    7.2,    7.6,    7.5,    7.2,    7.4,    8.3,    8.5,    8.9,    8.6,    9.2,    9.3,    9.3,  999.0,  999.0,  999.0,  999.0,  999.0,  999.0,  999.0,  999.0,  999.0,  999.0,  999.0
1999/07/30 18:40,    1.1,    2.0,    3.5,    4.6,    6.5,  999.0,    7.9,    9.0,    8.6,    7.7,    7.6,    7.7,    8.4,    8.2,    7.9,    7.9,    7.8,    8.3,    7.7,    8.2,    8.4,  999.0,  999.0,  999.0,  999.0,  999.0,  999.0,  999.0,  999.0,  999.0,  999.0,  999.0
1999/07/30 18:50,    0.6,    2.3,    3.7,  999.0,    6.3,    7.5,    7.6,    7.7,    8.5,    7.8,    8.1,    8.4,    7.8,  999.0,    8.7,  999.0,  999.0,    9.3,    8.2,    8.5,  999.0,  999.0,  999.0,  999.0,  999.0,  999.0,  999.0,  999.0,  999.0,  999.0,  999.0,  999.0
1999/07/30 19:00,    1.2,  999.0,    3.0,    4.6,    5.8,    6.5,    7.0,    7.3,    8.4,  999.0,    8.1,    8.7,    8.6,    9.0,    9.2,  999.0,  999.0,  999.0,    9.9,    9.7,   10.5,  999.0,  999.0,  999.0,  999.0,  999.0,  999.0,  999.0,  999.0,  999.0,  999.0,  999.0
1999/07/30 19:10,    1.0,    2.6,    3.1,    4.5,    5.9,    7.0,  999.0,    7.4,  999.0,    7.2,    7.2,    7.1,    7.9,    8.8,  999.0,   10.2,  999.0,  999.0,    9.8,   10.5,  999.0,  999.0,  999.0,  999.0,  999.0,  999.0,  999.0,  999.0,  999.0,  999.0,  999.0,  999.0
1999/07/30 19:20,    0.2,    1.5,    2.4,    4.9,    6.1,  999.0,  999.0,  999.0,  999.0,    6.6,    6.4,    7.6,    8.4,    8.7,  999.0,    8.9,  999.0,  999.0,   10.0,    9.9,    9.9,  999.0,  999.0,  999.0,  999.0,  999.0,  999.0,  999.0,  999.0,  999.0,  999.0,  999.0
1999/07/30 19:30,    0.4,    2.3,    3.4,    5.0,    5.7,    6.1,  999.0,  999.0,  999.0,    7.9,  999.0,  999.0,  999.0,  999.0,  999.0,  999.0,  999.0,  999.0,    9.5,    9.6,    9.0,  999.0,  999.0,  999.0,  999.0,  999.0,  999.0,  999.0,  999.0,  999.0,  999.0,  999.0
1999/07/30 19:40,    1.6,    2.0,    4.1,    5.6,    6.9,    7.5,  999.0,    7.8,    8.1,    8.6,    9.6,   10.1,   10.2,  999.0,  999.0,    9.2,    9.2,  999.0,    9.3,    8.9,   10.8,    9.9,  999.0,  999.0,  999.0,  999.0,  999.0,  999.0,  999.0,  999.0,  999.0,  999.0
1999/07/30 19:50,    2.0,    2.8,    4.7,    6.3,    6.4,    7.5,  999.0,  999.0,  999.0,    8.5,    9.1,    9.4,  999.0,  999.0,  999.0,  999.0,    9.3,  999.0,    9.0,    9.0,    8.7,    9.0,  999.0,  999.0,  999.0,  999.0,  999.0,  999.0,  999.0,  999.0,  999.0,  999.0
1999/07/30 20:00,  999.0,    2.1,    3.4,    4.9,    5.9,    6.6,    6.9,    7.3,    8.1,    8.9,  999.0,    9.7,    9.6,  999.0,  999.0,    9.2,    9.1,   10.4,  999.0,  999.0,    9.2,  999.0,  999.0,  999.0,  999.0,  999.0,  999.0,  999.0,  999.0,  999.0,  999.0,  999.0
1999/07/30 20:10,    1.4,    2.6,    3.8,    4.6,  999.0,    6.3,    6.8,    7.9,    8.7,    9.1,    8.9,    9.0,    8.1,    9.7,   10.3,    9.6,   10.3,    9.5,    9.2,    8.9,    9.5,  999.0,  999.0,  999.0,  999.0,  999.0,  999.0,  999.0,  999.0,  999.0,  999.0,  999.0
1999/07/30 20:20,  999.0,    2.2,  999.0,    4.8,    5.1,    5.7,    6.7,    7.8,    9.3,   10.0,    9.4,    9.5,    9.3,   10.7,   10.9,    9.3,  999.0,    9.2,    9.6,    9.7,    9.5,  999.0,  999.0,  999.0,  999.0,  999.0,  999.0,  999.0,  999.0,  999.0,  999.0,  999.0
1999/07/30 20:30,    1.4,    2.9,    4.0,    4.6,    5.8,    6.5,    7.6,    8.8,    9.8,   10.0,   10.7,    9.1,    9.5,   10.8,   10.8,   10.6,   10.2,   10.5,   10.7,   10.9,   11.4,  999.0,  999.0,  999.0,    8.8,  999.0,  999.0,  999.0,  999.0,  999.0,  999.0,  999.0
1999/07/30 20:40,    2.1,    3.8,    2.4,    4.6,    4.0,    5.6,    8.7,    9.0,    9.5,   10.3,   10.2,   12.4,   11.0,   12.1,   12.0,   11.6,   10.2,   10.9,    9.5,  999.0,  999.0,  999.0,  999.0,    8.9,  999.0,  999.0,  999.0,  999.0,  999.0,  999.0,  999.0,  999.0
1999/07/30 20:50,    3.3,    3.0,    1.6,    1.9,    4.4,    6.4,  999.0,    7.7,  999.0,    8.4,  999.0,    5.5,    8.1,    9.6,    8.3,   10.1,   10.2,   10.2,   10.9,    9.7,  999.0,  999.0,  999.0,  999.0,  999.0,  999.0,  999.0,  999.0,  999.0,  999.0,  999.0,  999.0
1999/07/30 21:00,  999.0,    3.2,    4.1,    3.9,    4.6,    6.0,    6.6,    8.7,    9.2,   10.2,   11.0,   11.2,   11.2,   10.6,   10.4,   10.3,   10.1,   10.6,   11.2,   10.3,  999.0,  999.0,  999.0,  999.0,  999.0,  999.0,  999.0,  999.0,  999.0,  999.0,  999.0,  999.0
1999/07/30 21:10,    3.0,    3.4,    3.3,    4.1,  999.0,  999.0,    5.9,    6.8,    7.9,    8.1,    9.0,    8.5,    8.5,    8.9,    8.4,    8.3,    8.9,    9.9,   10.0,   10.6,   10.8,   10.8,  999.0,  999.0,   10.8,  999.0,  999.0,  999.0,  999.0,  999.0,  999.0,  999.0
1999/07/30 21:20,    2.5,  999.0,  999.0,  999.0,    5.1,    5.6,    6.5,    8.3,    8.4,    8.5,    8.4,    8.5,    9.6,    9.9,    9.2,   10.9,    9.0,   10.2,  999.0,    8.0,    9.1,   10.0,  999.0,    9.8,  999.0,  999.0,  999.0,  999.0,  999.0,  999.0,  999.0,  999.0
1999/07/30 21:30,    2.8,    2.1,    2.5,    3.9,    4.1,    4.5,    5.1,    6.4,    7.4,    8.0,    8.6,    9.1,   11.5,    9.1,    8.2,    9.5,    9.8,    9.2,    9.0,  999.0,  999.0,  999.0,  999.0,  999.0,   11.6,  999.0,  999.0,  999.0,  999.0,  999.0,  999.0,  999.0
1999/07/30 21:40,    2.3,  999.0,    3.5,    3.4,    4.7,    6.6,    6.2,    7.4,    8.5,  999.0,  999.0,   12.0,  999.0,    9.2,  999.0,  999.0,    9.4,    9.3,  999.0,  999.0,  999.0,  999.0,  999.0,  999.0,  999.0,    8.0,  999.0,  999.0,  999.0,  999.0,  999.0,  999.0
1999/07/30 21:50,    3.9,  999.0,    4.8,    4.7,    4.7,    4.5,    6.7,    6.7,    6.4,    7.9,  999.0,   11.1,    6.6,  999.0,    9.2,    9.5,   10.3,   10.6,  999.0,  999.0,  999.0,  999.0,  999.0,  999.0,  999.0,    8.9,  999.0,  999.0,  999.0,  999.0,  999.0,  999.0
1999/07/30 22:00,  999.0,  999.0,    3.4,    4.1,    4.1,    5.2,    5.8,    6.7,    7.8,    7.9,    7.6,    9.1,    8.6,    9.3,   10.0,    9.8,   10.1,   11.1,  999.0,  999.0,   11.1,  999.0,  999.0,  999.0,  999.0,  999.0,  999.0,  999.0,  999.0,  999.0,  999.0,  999.0
1999/07/30 22:10,    1.4,    3.1,  999.0,  999.0,    4.4,    5.5,    6.0,    6.4,    6.9,    6.7,    7.1,    8.2,  999.0,    8.7,    9.9,    9.5,    9.3,  999.0,  999.0,  999.0,  999.0,  999.0,  999.0,   10.7,    9.7,   10.0,  999.0,  999.0,  999.0,  999.0,  999.0,  999.0
1999/07/30 22:20,  999.0,  999.0,  999.0,  999.0,    3.8,    4.5,    5.4,    6.0,    6.8,    6.2,    8.2,  999.0,  999.0,    8.3,    9.6,    9.0,    8.8,  999.0,  999.0,  999.0,  999.0,  999.0,  999.0,  999.0,   10.1,  999.0,   10.5,  999.0,  999.0,  999.0,  999.0,  999.0
1999/07/30 22:30,    3.0,  999.0,    2.7,  999.0,    3.2,    3.9,    4.6,    6.1,    7.0,    6.8,    8.6,  999.0,    4.6,    9.7,   10.3,  999.0,    9.7,  999.0,  999.0,  999.0,  999.0,  999.0,  999.0,  999.0,  999.0,  999.0,  999.0,  999.0,  999.0,  999.0,  999.0,  999.0
1999/07/30 22:40,  999.0,  999.0,    3.8,    4.3,    4.1,    4.3,    5.5,    6.2,    6.4,    7.1,  999.0,  999.0,  999.0,    8.8,    9.7,   10.1,  999.0,   10.6,  999.0,  999.0,  999.0,  999.0,  999.0,  999.0,  999.0,  999.0,  999.0,  999.0,  999.0,    3.3,  999.0,  999.0
1999/07/30 22:50,  999.0,    1.3,    2.1,  999.0,    3.5,    4.1,    5.2,    5.3,    6.5,    8.2,    8.7,  999.0,  999.0,    8.9,    9.7,  999.0,  999.0,  999.0,  999.0,  999.0,  999.0,  999.0,  999.0,  999.0,  999.0,  999.0,  999.0,  999.0,  999.0,    9.3,  999.0,    6.8
1999/07/30 23:00,    2.0,    1.3,  999.0,  999.0,    3.4,    4.6,    5.0,    5.7,    7.1,    9.1,    8.6,  999.0,    8.9,    9.3,    9.7,  999.0,  999.0,    9.9,  999.0,  999.0,  999.0,  999.0,  999.0,  999.0,  999.0,  999.0,  999.0,  999.0,  999.0,    9.1,    7.8,    7.1
1999/07/30 23:10,    2.5,   -0.3,   -0.2,    3.0,    3.4,    4.6,    5.7,    6.7,    7.8,    9.3,    9.1,  999.0,    9.0,    8.9,    9.4,  999.0,  999.0,  999.0,  999.0,  999.0,  999.0,  999.0,  999.0,  999.0,  999.0,  999.0,  999.0,  999.0,  999.0,    8.6,  999.0,  999.0
1999/07/30 23:20,    2.8,    1.6,   -0.0,    1.1,    1.8,    4.3,    6.0,    7.5,  999.0,    9.2,    9.6,    9.5,    8.7,    8.5,    8.8,  999.0,  999.0,  999.0,    9.2,  999.0,  999.0,  999.0,  999.0,  999.0,  999.0,  999.0,  999.0,  999.0,  999.0,  999.0,  999.0,  999.0
1999/07/30 23:30,    2.3,    1.1,  999.0,    1.3,    2.8,    4.5,    5.7,    6.6,    9.0,    9.8,    9.4,    9.0,    9.0,    8.9,  999.0,  999.0,  999.0,  999.0,    8.5,    9.3,  999.0,  999.0,  999.0,  999.0,  999.0,  999.0,  999.0,  999.0,  999.0,    9.0,  999.0,  999.0
1999/07/30 23:40,  999.0,  999.0,  999.0,    2.1,    3.7,    4.9,    6.3,    6.9,    6.8,    9.0,  999.0,  999.0,    8.9,    8.7,  999.0,  999.0,  999.0,  999.0,    9.0,    9.1,  999.0,  999.0,  999.0,  999.0,  999.0,  999.0,  999.0,  999.0,  999.0,    8.1,  999.0,  999.0
1999/07/30 23:50,  999.0,  999.0,    1.3,  999.0,  999.0,    5.7,    7.0,    7.5,    7.1,    9.0,    8.9,  999.0,    8.2,    8.3,    8.2,  999.0,  999.0,  999.0,    8.2,    8.6,  999.0,  999.0,  999.0,  999.0,  999.0,  999.0,  999.0,  999.0,  999.0,  999.0,  999.0,  999.0
